Location: Bay Ridge
(40.6340°N, 74.0146°W)
Time: 08:03:20
(UTC+00:00)

Cosmos 2100 Rocket - Pass Details

Date: 15 November 2019
Orbit: 955 x 1001 km, 82.9° (Epoch: 07 December)

Event Time Altitude Azimuth Distance (km) Brightness Sun altitude
Rises 10:45:02 0° 207° (SSW) 3,658 6.9 -11.1°
Reaches altitude 10° 10:47:42 10° 214° (SW) 2,708 6.1 -10.6°
Maximum altitude 10:53:29 41° 283° (WNW) 1,367 4.3 -9.5°
Drops below altitude 10° 10:59:17 10° 353° (N) 2,700 6.1 -8.5°
Sets 11:01:57 0° 1° (N) 3,647 6.8 -8.0°
